• Join FlightAware (Why Join?)
  • Login
  • US Flag 
06:03PM EDT


 

Airport Tracker/Info


-or-


 

Live Flight TrackerFlight Track Log ✈ N845AE ✈ 11-Jun-2013 ✈ KDFW - KROW

Flight Track Log - Related Links

Times and Time Zones

All times are in EDT time to prevent confusion due to time zone crossing. See the N845AE flight status page for this flight to view local times or setup timezone preferences in your user account.

Time Position Orientation Groundspeed Altitude Reporting Facility
EDT Latitude Longitude Course Direction KTS MPH feet Rate Location/Type
09:14PM 32.9000 -97.0500 275° West 151 174 1,100  Level Dallas / Fort Worth TRACON
09:15PM 32.8167 -97.0500 180° South 197 227 3,800 1,920 Climbing Dallas / Fort Worth TRACON
09:16PM 32.7667 -97.0500 180° South 240 276 5,600 1,980 Climbing Dallas / Fort Worth TRACON
09:17PM 32.6833 -97.1987 270° West  Level FlightAware Approximate
09:17PM 32.7000 -97.0833 203° Southwest 261 300 7,800  Level Dallas / Fort Worth TRACON
09:18PM 32.6889 -97.3215 275° West  Level FlightAware Approximate
09:18PM 32.7000 -97.1667 270° West 296 341 9,400  Level Dallas / Fort Worth TRACON
09:19PM 32.6983 -97.4442 275° West  Level FlightAware Approximate
09:19PM 32.7000 -97.2833 270° West 312 359 10,900  Level Dallas / Fort Worth TRACON
09:20PM 32.7077 -97.5668 275° West  Level FlightAware Approximate
09:20PM 32.7019 -97.3122 275° West 313 360 11,200  Level Fort Worth Center
09:21PM 32.7061 -97.3986 273° West 345 397 12,300 1,140 Climbing Fort Worth Center
09:22PM 32.7144 -97.5244 275° West 354 407 13,500 1,200 Climbing Fort Worth Center
09:23PM 32.7183 -97.6283 273° West 354 407 14,800 1,440 Climbing Fort Worth Center
09:24PM 32.7264 -97.7592 274° West 359 413 16,400 1,440 Climbing Fort Worth Center
09:25PM 32.7261 -97.8678 270° West 364 419 17,700 1,260 Climbing Fort Worth Center
09:26PM 32.7256 -98.0011 270° West 370 426 19,000 1,200 Climbing Fort Worth Center
09:27PM 32.7103 -98.1122 261° West 381 438 20,100 1,200 Climbing Fort Worth Center
09:28PM 32.7178 -98.2531 274° West 388 447 21,400 1,140 Climbing Fort Worth Center
09:29PM 32.7317 -98.3692 278° West 388 447 22,400 1,080 Climbing Fort Worth Center
09:30PM 32.7492 -98.5150 278° West 397 457 23,600 1,200 Climbing Fort Worth Center
09:31PM 32.7647 -98.6486 278° West 408 470 24,800 1,140 Climbing Fort Worth Center
09:32PM 32.7800 -98.7797 278° West 408 470 25,900 1,140 Climbing Fort Worth Center
09:33PM 32.7950 -98.9136 278° West 413 475 27,100 1,200 Climbing Fort Worth Center
09:34PM 32.8103 -99.0472 278° West 413 475 28,300 1,140 Climbing Fort Worth Center
09:35PM 32.8250 -99.1811 277° West 408 470 29,400 1,140 Climbing Fort Worth Center
09:36PM 32.8419 -99.3172 278° West 413 475 30,600 1,200 Climbing Fort Worth Center
09:37PM 32.8564 -99.4511 277° West 413 475 31,800 1,260 Climbing Fort Worth Center
09:38PM 32.8711 -99.5753 278° West 413 475 33,200 1,380 Climbing Fort Worth Center
09:39PM 32.8853 -99.7067 277° West 413 475 34,600 1,260 Climbing Fort Worth Center
09:40PM 32.9017 -99.8381 278° West 408 470 35,800 660 Climbing Fort Worth Center
09:41PM 32.9156 -99.9772 277° West 413 475 36,000 60 Climbing Fort Worth Center
09:42PM 32.9272 -100.1161 276° West 424 488 36,000  Level Fort Worth Center
09:43PM 32.9428 -100.2625 277° West 436 502 36,000  Level Fort Worth Center
09:44PM 32.9564 -100.4042 277° West 436 502 36,000  Level Fort Worth Center
09:45PM 32.9694 -100.5456 276° West 441 507 36,000  Level Fort Worth Center
09:46PM 32.9825 -100.6872 276° West 441 507 36,000  Level Fort Worth Center
09:47PM 32.9997 -100.8292 278° West 441 507 36,000  Level Fort Worth Center
09:48PM 33.0103 -100.9708 275° West 441 507 36,000  Level Fort Worth Center
09:49PM 33.0267 -101.1275 277° West 431 496 36,000  Level Fort Worth Center
09:50PM 33.0375 -101.2542 276° West 431 496 36,000  Level Fort Worth Center
09:51PM 33.0517 -101.4036 276° West 421 484 36,000  Level Fort Worth Center
09:52PM 33.0642 -101.5331 277° West 431 496 36,000  Level Fort Worth Center
09:53PM 33.0778 -101.6825 276° West 426 490 36,000 -360 Level Fort Worth Center
09:54PM 33.0881 -101.8092 276° West 434 499 35,300 -900 Descending Fort Worth Center
09:55PM 33.1014 -101.9661 276° West 432 497 34,300 -960 Descending Fort Worth Center
09:56PM 33.1111 -102.0931 275° West 432 497 33,400 -960 Descending Fort Worth Center
09:57PM 33.1283 -102.2503 277° West 432 497 32,400 -720 Descending Fort Worth Center
09:58PM 33.1378 -102.3797 275° West 438 504 32,000 -240 Descending Fort Worth Center
09:59PM 33.1522 -102.5394 276° West 446 513 32,000  Level Fort Worth Center
10:00PM 33.1669 -102.6892 277° West 446 513 32,000  Level Fort Worth Center
10:01PM 33.1772 -102.8361 275° West 446 513 32,000 -180 Level Fort Worth Center
10:02PM 33.1836 -102.9208 275° West 446 513 31,700 -1,800 Descending Albuquerque Center
10:03PM 33.1969 -103.0947 275° West 445 512 28,800 -3,180 Descending Albuquerque Center
10:04PM 33.2086 -103.2392 276° West 441 507 25,300 -3,360 Descending Albuquerque Center
10:05PM 33.2186 -103.3819 275° West 437 503 22,000 -2,400 Descending Albuquerque Center
10:06PM 33.2281 -103.5100 275° West 406 467 20,400 -1,020 Descending Albuquerque Center
10:07PM 33.2375 -103.6208 276° West 355 409 20,000 -240 Descending Albuquerque Center
10:08PM 33.2486 -103.7403 276° West 324 373 20,000  Level Albuquerque Center
10:09PM 33.2567 -103.8453 275° West 319 367 20,000  Level Albuquerque Center
10:10PM 33.2636 -103.9444 275° West 303 349 20,000 -900 Level Albuquerque Center
10:11PM 33.2700 -104.0478 274° West 292 336 18,200 -2,580 Descending Albuquerque Center
10:12PM 33.2783 -104.1542 275° West 319 367 14,800 -3,120 Descending Albuquerque Center
10:13PM 33.3036 -104.2514 287° West 309 356 11,900 -2,820 Descending Albuquerque Center